Zurück zum Katalog

STARLINK-3975

AktivKommunikationVLEO
NORAD 52620·PAYLOAD·🇺🇸 United States

Gestartet May 14, 2022 von Cape Canaveral Space Force Station

Loading…

Nächste Überflüge (nächste 24 Stunden)

TLE

AktuellSource: CelesTrak SupGP

Epoche: Sep 15, 2026, 02:16 UTC

1 52620C 22052Y   26258.09493056  .00044400  00000+0  13473-2 0  2584
2 52620  53.1573 141.3313 0001320  83.6166 133.7282 15.33525951    19

Verfolge STARLINK-3975 in Echtzeit mit AllMySat

Download on the App Store